CW2553 Weather Reports


Display with metric or nautical units.
time (UTC)temp
F
wind
direction
speed
MPH
gust
MPH
rain 1hr
in
rain 24hr
in
rain mn
in
humidity
%
barometer
mb
20260507200431 68 93 2.0 3.0 0.00 0.00 0.00 66 1016.7
20260507195927 67 32 0.0 0.0 0.00 0.00 0.00 67 1016.8
20260507195425 67 297 0.0 0.0 0.00 0.00 0.00 65 1016.8
20260507194922 66 298 0.0 1.0 0.00 0.00 0.00 70 1017.0
20260507194418 65 299 1.0 1.0 0.00 0.00 0.00 71 1016.9
20260507193915 66 307 2.0 3.0 0.00 0.00 0.00 71 1016.9
20260507193412 66 298 1.0 2.0 0.00 0.00 0.00 69 1017.1
20260507192908 66 207 0.0 0.0 0.00 0.00 0.00 69 1017.1
20260507192404 64 10 0.0 1.0 0.00 0.00 0.00 72 1017.2
20260507191901 65 292 1.0 2.0 0.00 0.00 0.00 69 1017.4
20260507191358 66 274 3.0 5.0 0.00 0.00 0.00 67 1017.1
20260507190854 65 127 1.0 1.0 0.00 0.00 0.00 73 1017.1
20260507190352 66 321 1.0 1.0 0.00 0.00 0.00 68 1017.2
20260507185851 66 300 1.0 1.0 0.00 0.00 0.00 69 1017.3
20260507185348 66 349 0.0 1.0 0.00 0.00 0.00 69 1017.4
20260507184845 65 303 1.0 1.0 0.00 0.00 0.00 72 1017.5
20260507184343 64 310 1.0 1.0 0.00 0.00 0.00 73 1017.4
20260507183839 64 297 1.0 1.0 0.00 0.00 0.00 73 1017.3
20260507183336 62 294 1.0 1.0 0.00 0.00 0.00 75 1017.7
20260507182834 63 289 2.0 2.0 0.00 0.00 0.00 72 1017.6
20260507182329 63 293 1.0 1.0 0.00 0.00 0.00 73 1017.6
20260507181826 63 300 1.0 1.0 0.00 0.00 0.00 74 1017.8
20260507181322 63 297 2.0 2.0 0.00 0.00 0.00 73 1017.4
20260507180819 63 295 2.0 2.0 0.00 0.00 0.00 73 1017.6
20260507180316 62 285 1.0 2.0 0.00 0.00 0.00 75 1017.7
20260507175811 63 296 2.0 2.0 0.00 0.00 0.00 74 1017.8
20260507175309 63 289 2.0 2.0 0.00 0.00 0.00 75 1017.7
20260507174806 61 294 2.0 2.0 0.00 0.00 0.00 75 1017.8
20260507174304 61 318 1.0 1.0 0.00 0.00 0.00 77 1017.7
20260507173801 62 292 1.0 1.0 0.00 0.00 0.00 76 1017.7
20260507173258 62 304 1.0 1.0 0.00 0.00 0.00 74 1017.8
20260507172754 59 313 0.0 0.0 0.00 0.00 0.00 78 1017.8
20260507172251 60 333 1.0 2.0 0.00 0.00 0.00 79 1017.6
20260507171747 62 326 1.0 1.0 0.00 0.00 0.00 76 1017.8
20260507171244 60 103 1.0 1.0 0.00 0.00 0.00 78 1017.8
20260507170741 60 91 1.0 1.0 0.00 0.00 0.00 78 1017.9
20260507170237 59 44 1.0 1.0 0.00 0.00 0.00 84 1017.8
20260507165733 57 288 2.0 2.0 0.00 0.00 0.00 83 1018.1
20260507165229 57 17 0.0 0.0 0.00 0.00 0.00 84 1017.9
20260507164726 57 338 2.0 2.0 0.00 0.00 0.00 85 1017.6
20260507164223 57 338 0.0 1.0 0.00 0.00 0.00 84 1017.6
20260507163720 57 324 0.0 0.0 0.00 0.00 0.00 83 1018.0
20260507163218 59 102 1.0 2.0 0.00 0.00 0.00 81 1018.1
20260507162713 59 91 0.0 0.0 0.00 0.00 0.00 80 1017.8
20260507162210 59 131 1.0 2.0 0.00 0.00 0.00 82 1018.2
20260507161706 58 36 0.0 0.0 0.00 0.00 0.00 84 1017.9
20260507161203 57 62 0.0 0.0 0.00 0.00 0.00 84 1017.8
20260507160659 56 56 0.0 1.0 0.00 0.00 0.00 85 1018.1
20260507160156 56 88 1.0 1.0 0.00 0.00 0.00 85 1018.2
20260507155651 55 76 1.0 1.0 0.00 0.00 0.00 88 1018.1
20260507155142 55 37 0.0 0.0 0.00 0.00 0.00 87 1018.1
20260507154639 55 29 0.0 0.0 0.00 0.00 0.00 88 1018.0
20260507154137 55 132 1.0 1.0 0.00 0.00 0.00 88 1018.1
20260507153633 56 138 0.0 0.0 0.00 0.00 0.00 88 1018.2
20260507153129 55 13 0.0 0.0 0.00 0.00 0.00 88 1018.1
20260507152626 55 347 0.0 0.0 0.00 0.00 0.00 89 1018.2
20260507152122 55 348 0.0 1.0 0.00 0.00 0.00 88 1018.2
20260507151618 54 334 0.0 0.0 0.00 0.00 0.00 89 1018.3
20260507151115 53 334 1.0 1.0 0.00 0.00 0.00 90 1018.2
20260507150612 53 353 1.0 1.0 0.00 0.00 0.00 91 1018.2
20260507150108 53 17 1.0 1.0 0.00 0.00 0.00 92 1018.2
20260507145603 53 15 1.0 1.0 0.00 0.00 0.00 92 1018.3
20260507145101 53 331 0.0 1.0 0.00 0.00 0.00 92 1018.1
20260507144557 53 316 0.0 0.0 0.00 0.00 0.00 93 1018.2
20260507144056 52 316 0.0 0.0 0.00 0.00 0.00 94 1018.4
20260507143552 52 316 0.0 0.0 0.00 0.00 0.00 93 1018.3
20260507143050 52 322 0.0 0.0 0.00 0.00 0.00 94 1018.1
20260507142549 52 316 0.0 1.0 0.00 0.00 0.00 94 1018.2
20260507142047 51 308 0.0 0.0 0.00 0.00 0.00 94 1018.3
20260507141543 51 322 0.0 0.0 0.00 0.00 0.00 95 1018.1
20260507141040 51 322 0.0 0.0 0.00 0.00 0.00 95 1018.1
20260507140537 51 322 0.0 0.0 0.00 0.00 0.00 95 1018.1
20260507140034 51 322 1.0 1.0 0.00 0.00 0.00 95 1018.0
20260507135531 51 322 0.0 0.0 0.00 0.00 0.00 95 1018.1
20260507135028 51 322 0.0 1.0 0.00 0.00 0.00 95 1018.1
20260507134525 51 322 0.0 0.0 0.00 0.00 0.00 95 1018.2
20260507134020 51 322 0.0 1.0 0.00 0.00 0.00 95 1017.8
20260507133517 51 322 0.0 0.0 0.00 0.00 0.00 95 1018.0
20260507133015 51 323 0.0 0.0 0.00 0.00 0.00 95 1017.9
20260507132511 51 323 0.0 0.0 0.00 0.00 0.00 95 1017.9
20260507132007 51 323 0.0 0.0 0.00 0.00 0.00 95 1017.9
20260507131505 51 323 0.0 0.0 0.00 0.00 0.00 95 1017.8
20260507131001 51 323 0.0 0.0 0.00 0.00 0.00 95 1018.1
20260507130458 51 323 0.0 0.0 0.00 0.00 0.00 95 1017.8
20260507125957 51 323 0.0 0.0 0.00 0.00 0.00 95 1018.0
20260507125455 51 323 0.0 0.0 0.00 0.00 0.00 95 1018.0
20260507124952 51 323 0.0 0.0 0.00 0.00 0.00 96 1017.9
20260507124448 51 323 0.0 0.0 0.00 0.00 0.00 96 1017.9
20260507123946 51 323 0.0 0.0 0.00 0.00 0.00 96 1017.9
20260507123444 51 323 0.0 0.0 0.00 0.00 0.00 96 1018.1
20260507122940 51 323 1.0 2.0 0.00 0.00 0.00 96 1017.8
20260507122435 51 322 0.0 1.0 0.00 0.00 0.00 96 1018.0
20260507121932 51 323 0.0 0.0 0.00 0.00 0.00 96 1018.1
20260507121427 51 322 0.0 0.0 0.00 0.00 0.00 95 1018.2
20260507120924 51 323 0.0 0.0 0.00 0.00 0.00 95 1018.1
20260507120420 51 325 1.0 1.0 0.00 0.00 0.00 95 1018.1
20260507115917 51 324 0.0 0.0 0.00 0.00 0.00 95 1018.1
20260507115413 51 326 0.0 0.0 0.00 0.00 0.00 95 1018.2
20260507114908 51 326 0.0 0.0 0.00 0.00 0.00 95 1018.6
20260507114406 51 326 0.0 0.0 0.00 0.00 0.00 95 1018.1
20260507113903 51 326 0.0 0.0 0.00 0.00 0.00 95 1018.2
20260507113400 51 326 0.0 0.0 0.00 0.00 0.00 95 1018.5
20260507112857 51 326 0.0 0.0 0.00 0.00 0.00 95 1018.5
20260507112354 51 326 0.0 0.0 0.00 0.00 0.00 96 1018.4
20260507111852 51 326 0.0 0.0 0.00 0.00 0.00 96 1018.6
20260507111348 51 326 0.0 0.0 0.00 0.00 0.00 96 1018.4
20260507110844 51 327 0.0 0.0 0.00 0.00 0.00 95 1018.4
20260507110341 51 327 0.0 0.0 0.00 0.00 0.00 96 1018.5
20260507105838 51 327 0.0 0.0 0.00 0.00 0.00 96 1018.5
20260507105334 51 327 0.0 0.0 0.00 0.00 0.00 96 1018.5
20260507104831 51 327 0.0 0.0 0.00 0.00 0.00 95 1018.4
20260507104328 51 327 0.0 0.0 0.00 0.00 0.00 95 1018.5
20260507103824 51 329 0.0 0.0 0.00 0.00 0.00 95 1018.5
20260507103320 51 329 0.0 0.0 0.00 0.00 0.00 95 1018.5
20260507102817 51 333 0.0 0.0 0.00 0.00 0.00 95 1018.4
20260507102314 51 332 0.0 0.0 0.00 0.00 0.00 94 1018.8
20260507101810 51 333 0.0 0.0 0.00 0.00 0.00 93 1018.7
20260507101305 51 336 0.0 0.0 0.00 0.00 0.00 93 1018.5
20260507100803 51 336 0.0 1.0 0.00 0.00 0.00 93 1018.9
20260507100301 51 337 0.0 0.0 0.00 0.00 0.00 92 1018.9
20260507095758 51 336 1.0 1.0 0.00 0.00 0.00 92 1019.0
20260507095254 52 351 0.0 0.0 0.00 0.00 0.00 92 1018.8
20260507094752 52 334 0.0 0.0 0.00 0.00 0.00 92 1019.0
20260507094248 52 340 0.0 0.0 0.00 0.00 0.00 91 1018.8
20260507093745 52 312 0.0 1.0 0.00 0.00 0.00 91 1019.1
20260507093244 52 312 0.0 0.0 0.00 0.00 0.00 90 1019.2
20260507092741 52 312 0.0 1.0 0.00 0.00 0.00 90 1019.0
20260507092237 52 312 0.0 0.0 0.00 0.00 0.00 90 1019.2
20260507091734 52 312 0.0 0.0 0.00 0.00 0.00 90 1019.1
20260507091230 52 312 0.0 1.0 0.00 0.00 0.00 90 1019.1
20260507090726 52 315 0.0 0.0 0.00 0.00 0.00 90 1019.3
20260507090223 52 315 0.0 0.0 0.00 0.00 0.00 89 1019.2
20260507085720 52 340 0.0 0.0 0.00 0.00 0.00 89 1019.3
20260507085217 52 31 0.0 1.0 0.00 0.00 0.00 89 1019.4
20260507084713 52 348 0.0 1.0 0.00 0.00 0.00 89 1019.3
20260507084210 52 349 0.0 0.0 0.00 0.00 0.00 89 1019.4
20260507083708 52 350 0.0 0.0 0.00 0.00 0.00 89 1019.4
20260507083204 52 352 0.0 0.0 0.00 0.00 0.00 89 1019.2
20260507082700 52 337 0.0 0.0 0.00 0.00 0.00 89 1019.2
20260507082156 53 352 0.0 0.0 0.00 0.00 0.00 89 1019.4
20260507081653 53 352 0.0 0.0 0.00 0.00 0.00 89 1019.2
20260507081149 53 352 0.0 0.0 0.00 0.00 0.00 89 1019.2
20260507080646 53 44 0.0 0.0 0.00 0.00 0.00 88 1019.2
20260507080143 53 38 0.0 0.0 0.00 0.00 0.00 88 1019.1
20260507075643 53 353 0.0 0.0 0.00 0.00 0.00 88 1019.0
20260507075139 53 321 0.0 0.0 0.00 0.00 0.00 88 1019.3
20260507074636 53 321 0.0 0.0 0.00 0.00 0.00 88 1019.3
20260507074129 53 7 0.0 0.0 0.00 0.00 0.00 88 1019.3
20260507073625 53 1 0.0 0.0 0.00 0.00 0.00 88 1019.2
20260507073121 53 305 0.0 0.0 0.00 0.00 0.00 88 1019.1
20260507072619 53 355 0.0 1.0 0.00 0.00 0.00 87 1019.2
20260507072116 53 354 0.0 0.0 0.00 0.00 0.00 87 1018.8
20260507071613 53 318 1.0 1.0 0.00 0.00 0.00 87 1018.9
20260507071109 53 309 0.0 1.0 0.00 0.00 0.00 87 1019.2
20260507070606 53 292 2.0 2.0 0.00 0.00 0.00 86 1019.2
20260507070058 53 319 1.0 1.0 0.00 0.00 0.00 86 1018.9
20260507065554 53 316 0.0 1.0 0.00 0.00 0.00 86 1019.1
20260507065051 53 306 0.0 1.0 0.00 0.00 0.00 86 1019.1
20260507064549 54 301 2.0 2.0 0.00 0.00 0.00 86 1019.1
20260507064048 54 316 1.0 1.0 0.00 0.00 0.00 86 1019.1
20260507063544 54 312 1.0 1.0 0.00 0.00 0.00 86 1019.0
20260507063042 54 315 1.0 1.0 0.00 0.00 0.00 86 1018.8
20260507062538 54 296 2.0 2.0 0.00 0.00 0.00 86 1018.9
20260507062036 54 319 1.0 1.0 0.00 0.00 0.00 87 1018.9
20260507061533 54 323 0.0 0.0 0.00 0.00 0.00 87 1019.0
20260507061031 55 302 1.0 1.0 0.00 0.00 0.00 88 1018.8
20260507060529 55 302 1.0 1.0 0.00 0.00 0.00 88 1018.9
20260507060025 55 305 1.0 1.0 0.00 0.00 0.00 88 1018.9
20260507055520 56 2 2.0 5.0 0.00 0.00 0.00 88 1019.2
20260507055016 56 290 2.0 2.0 0.00 0.00 0.00 88 1018.8
20260507054513 56 337 1.0 2.0 0.00 0.00 0.00 88 1018.8
20260507054010 55 323 1.0 1.0 0.00 0.00 0.00 89 1019.0
20260507053508 55 68 0.0 0.0 0.00 0.00 0.00 92 1019.0
20260507053006 55 68 0.0 0.0 0.00 0.00 0.00 93 1019.0
20260507052503 55 68 0.0 0.0 0.00 0.00 0.00 94 1018.8
20260507052000 55 68 0.0 0.0 0.00 0.00 0.00 95 1018.7
20260507051458 54 68 0.0 0.0 0.00 0.00 0.00 94 1018.8
20260507050954 54 68 0.0 0.0 0.00 0.00 0.00 94 1018.7
20260507050450 55 68 0.0 0.0 0.00 0.00 0.00 94 1018.8
20260507045948 55 67 0.0 0.0 0.00 0.00 0.00 93 1018.8
20260507045444 55 68 0.0 1.0 0.00 0.00 0.00 92 1018.7
20260507044942 56 333 0.0 0.0 0.00 0.00 0.00 89 1018.5
20260507044438 57 334 0.0 0.0 0.00 0.00 0.00 88 1018.5
20260507043934 57 337 0.0 0.0 0.00 0.00 0.00 88 1018.9
20260507043431 57 337 0.0 0.0 0.00 0.00 0.00 88 1018.9
20260507042927 57 337 0.0 0.0 0.00 0.00 0.00 87 1018.7
20260507042424 57 337 0.0 0.0 0.00 0.00 0.00 86 1018.5
20260507041919 58 339 0.0 1.0 0.00 0.00 0.00 86 1018.7
20260507041416 58 347 0.0 1.0 0.00 0.00 0.00 85 1018.6
20260507040914 59 303 0.0 0.0 0.00 0.00 0.00 84 1018.6
20260507040409 59 303 0.0 0.0 0.00 0.00 0.00 83 1018.5
20260507035905 59 319 1.0 1.0 0.00 0.00 0.00 82 1018.7
20260507035402 59 328 0.0 1.0 0.00 0.00 0.00 82 1018.4
20260507034859 60 337 0.0 0.0 0.00 0.00 0.00 82 1018.3
20260507034356 60 347 1.0 1.0 0.00 0.00 0.00 82 1018.1
20260507033854 60 312 1.0 1.0 0.00 0.00 0.00 81 1018.2
20260507033352 60 292 2.0 2.0 0.00 0.00 0.00 80 1018.0
20260507032848 61 326 0.0 0.0 0.00 0.00 0.00 81 1018.2
20260507032345 61 334 1.0 1.0 0.00 0.00 0.00 81 1018.0
20260507031841 62 294 1.0 1.0 0.00 0.00 0.00 79 1017.9
20260507031338 62 308 1.0 2.0 0.00 0.00 0.00 79 1017.7
20260507030834 62 303 1.0 1.0 0.00 0.00 0.00 79 1017.7
20260507030332 63 311 1.0 1.0 0.00 0.00 0.00 79 1017.6
20260507025829 63 314 1.0 1.0 0.00 0.00 0.00 80 1017.7
20260507025326 63 329 1.0 1.0 0.00 0.00 0.00 79 1017.8
20260507024824 63 339 0.0 1.0 0.00 0.00 0.00 78 1017.7
20260507024321 64 359 0.0 0.0 0.00 0.00 0.00 77 1017.6
20260507023817 64 0 0.0 0.0 0.00 0.00 0.00 77 1017.5
20260507023313 64 359 0.0 0.0 0.00 0.00 0.00 76 1017.7
20260507022811 65 359 0.0 0.0 0.00 0.00 0.00 75 1017.7
20260507022307 65 359 0.0 0.0 0.00 0.00 0.00 74 1017.5
20260507021803 65 2 0.0 0.0 0.00 0.00 0.00 73 1017.7
20260507021259 66 9 0.0 0.0 0.00 0.00 0.00 73 1017.7
20260507020757 66 14 0.0 0.0 0.00 0.00 0.00 73 1017.8
20260507020253 66 47 0.0 0.0 0.00 0.00 0.00 73 1017.6
20260507015751 66 37 0.0 0.0 0.00 0.00 0.00 72 1017.6
20260507015248 66 36 1.0 1.0 0.00 0.00 0.00 72 1017.6
20260507014745 66 26 0.0 0.0 0.00 0.00 0.00 71 1017.8
20260507014241 66 323 0.0 0.0 0.00 0.00 0.00 70 1018.0
20260507013738 67 339 0.0 1.0 0.00 0.00 0.00 70 1017.8
20260507013235 67 306 0.0 0.0 0.00 0.00 0.00 70 1017.8
20260507012733 67 340 1.0 1.0 0.00 0.00 0.00 69 1017.8
20260507012228 67 290 0.0 0.0 0.00 0.00 0.00 69 1018.1
20260507011726 67 15 0.0 0.0 0.00 0.00 0.00 70 1017.9
20260507011222 67 332 1.0 1.0 0.00 0.00 0.00 70 1018.0
20260507010721 67 353 0.0 1.0 0.00 0.00 0.00 69 1017.9
20260507010218 67 11 0.0 0.0 0.00 0.00 0.00 68 1017.8
20260507005716 67 347 1.0 1.0 0.00 0.00 0.00 68 1017.8
20260507005212 67 345 3.0 3.0 0.00 0.00 0.00 68 1017.9
20260507004708 67 287 4.0 6.0 0.00 0.00 0.00 70 1017.7
20260507004206 67 331 3.0 3.0 0.00 0.00 0.00 69 1018.0
20260507003702 67 296 1.0 2.0 0.00 0.00 0.00 70 1017.7
20260507003158 67 292 3.0 6.0 0.00 0.00 0.00 70 1017.9
20260507002654 67 346 1.0 1.0 0.00 0.00 0.00 71 1018.0
20260507002150 67 315 1.0 2.0 0.00 0.00 0.00 70 1017.8
20260507001647 67 301 1.0 1.0 0.00 0.00 0.00 70 1017.7
20260507001144 67 336 3.0 3.0 0.00 0.00 0.00 70 1017.8
20260507000640 67 311 3.0 3.0 0.00 0.00 0.00 71 1017.7
20260507000136 67 296 4.0 5.0 0.00 0.00 0.00 70 1017.8
20260506235634 67 332 5.0 7.0 0.00 0.00 0.00 70 1017.7
20260506235133 67 296 2.0 3.0 0.00 0.00 0.00 71 1017.4
20260506234631 67 355 1.0 2.0 0.00 0.00 0.00 71 1017.9
20260506234128 67 240 1.0 1.0 0.00 0.00 0.00 73 1017.7
20260506233625 67 302 1.0 1.0 0.00 0.00 0.00 72 1017.5
20260506233122 66 349 4.0 8.0 0.00 0.00 0.00 71 1017.6
20260506232618 66 321 1.0 2.0 0.00 0.00 0.00 73 1017.8
20260506232114 67 272 3.0 5.0 0.00 0.00 0.00 72 1017.7
20260506231611 67 275 2.0 2.0 0.00 0.00 0.00 71 1017.6
20260506231109 66 330 3.0 3.0 0.00 0.00 0.00 72 1017.5
20260506230605 66 329 1.0 1.0 0.00 0.00 0.00 72 1017.6
20260506230103 66 338 2.0 2.0 0.00 0.00 0.00 72 1017.7
20260506225559 67 272 2.0 2.0 0.00 0.00 0.00 70 1017.8
20260506225055 67 189 1.0 1.0 0.00 0.00 0.00 72 1018.1
20260506224553 68 296 3.0 5.0 0.00 0.00 0.00 72 1018.1
20260506224049 67 2 3.0 3.0 0.00 0.00 0.00 72 1018.2
20260506223545 67 311 1.0 2.0 0.00 0.00 0.00 72 1018.3
20260506223042 68 272 1.0 2.0 0.00 0.00 0.00 72 1018.0
20260506222539 67 294 0.0 1.0 0.00 0.00 0.00 73 1018.0
20260506222035 69 1 3.0 5.0 0.00 0.00 0.00 69 1018.0
20260506221533 69 1 1.0 2.0 0.00 0.00 0.00 71 1018.0
20260506221030 67 321 1.0 1.0 0.00 0.00 0.00 72 1018.3
20260506220526 68 324 3.0 3.0 0.00 0.00 0.00 71 1018.2
20260506220022 67 292 1.0 2.0 0.00 0.00 0.00 73 1018.2
20260506215519 68 336 2.0 2.0 0.00 0.00 0.00 70 1018.2
20260506215015 68 291 1.0 2.0 0.00 0.00 0.00 70 1018.1
20260506214512 67 273 1.0 1.0 0.00 0.00 0.00 75 1018.0
20260506214009 67 338 1.0 2.0 0.00 0.00 0.00 73 1018.4
20260506213507 67 307 2.0 2.0 0.00 0.00 0.00 73 1018.2
20260506213004 67 294 1.0 1.0 0.00 0.00 0.00 72 1018.4
20260506212500 67 276 1.0 2.0 0.00 0.00 0.00 74 1018.3
20260506211955 67 281 2.0 2.0 0.00 0.00 0.00 74 1018.5
20260506211451 66 295 2.0 3.0 0.00 0.00 0.00 73 1018.5
20260506210949 67 319 1.0 1.0 0.00 0.00 0.00 73 1018.4
20260506210444 67 289 2.0 2.0 0.00 0.00 0.00 75 1018.6
20260506205942 66 317 3.0 3.0 0.00 0.00 0.00 75 1018.6
20260506205438 66 332 2.0 2.0 0.00 0.00 0.00 74 1018.6
20260506204934 66 301 0.0 0.0 0.00 0.00 0.00 78 1018.7
20260506204432 65 304 2.0 2.0 0.00 0.00 0.00 75 1018.6
20260506203929 66 343 3.0 5.0 0.00 0.00 0.00 77 1018.7
20260506203426 65 267 1.0 1.0 0.00 0.00 0.00 76 1018.6
20260506202923 66 51 2.0 3.0 0.00 0.00 0.00 75 1018.7
20260506202421 66 331 3.0 3.0 0.00 0.00 0.00 75 1018.5
20260506201917 64 313 1.0 2.0 0.00 0.00 0.00 77 1018.7
20260506201414 64 304 3.0 6.0 0.00 0.00 0.00 77 1018.6